Time,TemperatureF,DewpointF,PressureIn,WindDirection,WindDirectionDegrees,WindSpeedMPH,WindSpeedGustMPH,Humidity,HourlyPrecipIn,Conditions,Clouds,dailyrainin,SoftwareType,DateUTC
2014-08-23 00:04:00,61.1,45.7,29.95,NNW,340,0.0,0.0,57,0.00,,,0.00,Wunderground v.1.13,2014-08-23 07:04:00,
2014-08-23 00:14:00,60.5,45.6,29.95,NNW,340,0.0,0.0,58,0.00,,,0.00,Wunderground v.1.13,2014-08-23 07:14:00,
2014-08-23 00:19:00,60.3,45.5,29.95,NNW,340,0.0,0.0,58,0.00,,,0.00,Wunderground v.1.13,2014-08-23 07:19:00,
2014-08-23 00:29:00,59.9,45.5,29.96,NNW,340,0.0,0.0,59,0.00,,,0.00,Wunderground v.1.13,2014-08-23 07:29:00,
2014-08-23 00:39:00,59.5,45.6,29.96,NNW,340,0.0,0.0,60,0.00,,,0.00,Wunderground v.1.13,2014-08-23 07:39:00,
2014-08-23 00:49:00,59.0,45.6,29.96,NNW,340,0.0,0.0,61,0.00,,,0.00,Wunderground v.1.13,2014-08-23 07:49:00,
2014-08-23 00:54:00,58.6,45.2,29.96,NNW,340,0.0,0.0,61,0.00,,,0.00,Wunderground v.1.13,2014-08-23 07:54:00,
2014-08-23 01:04:00,58.0,45.5,29.97,NNW,340,0.0,0.0,63,0.00,,,0.00,Wunderground v.1.13,2014-08-23 08:04:00,
2014-08-23 01:14:00,57.9,45.4,29.96,NNW,340,0.0,0.0,63,0.00,,,0.00,Wunderground v.1.13,2014-08-23 08:14:00,
2014-08-23 01:19:00,57.8,45.7,29.97,NNW,340,0.0,0.0,64,0.00,,,0.00,Wunderground v.1.13,2014-08-23 08:19:00,
2014-08-23 01:29:00,57.5,45.4,29.97,NNW,340,0.0,0.0,64,0.00,,,0.00,Wunderground v.1.13,2014-08-23 08:29:00,
2014-08-23 01:39:00,57.0,45.3,29.97,NNW,340,0.0,0.0,65,0.00,,,0.00,Wunderground v.1.13,2014-08-23 08:39:00,
2014-08-23 01:44:00,56.6,45.0,29.97,NNW,340,0.0,0.0,65,0.00,,,0.00,Wunderground v.1.13,2014-08-23 08:44:00,
2014-08-23 01:54:00,56.0,45.2,29.97,NNW,340,0.0,0.0,67,0.00,,,0.00,Wunderground v.1.13,2014-08-23 08:54:00,
2014-08-23 02:04:00,55.8,45.4,29.97,NNW,340,0.0,0.0,68,0.00,,,0.00,Wunderground v.1.13,2014-08-23 09:04:00,
2014-08-23 02:14:00,55.9,45.5,29.97,NNW,340,0.0,0.0,68,0.00,,,0.00,Wunderground v.1.13,2014-08-23 09:14:00,
2014-08-23 02:19:00,55.9,45.5,29.97,NNW,340,0.0,0.0,68,0.00,,,0.00,Wunderground v.1.13,2014-08-23 09:19:00,
2014-08-23 02:29:00,55.8,45.4,29.97,NNW,340,0.0,0.0,68,0.00,,,0.00,Wunderground v.1.13,2014-08-23 09:29:00,
2014-08-23 02:34:00,55.8,45.4,29.97,NNW,340,0.0,0.0,68,0.00,,,0.00,Wunderground v.1.13,2014-08-23 09:34:00,
2014-08-23 02:44:00,55.7,45.3,29.97,NNW,340,0.0,0.0,68,0.00,,,0.00,Wunderground v.1.13,2014-08-23 09:44:00,
2014-08-23 02:54:00,55.4,45.4,29.97,NNW,340,0.0,0.0,69,0.00,,,0.00,Wunderground v.1.13,2014-08-23 09:54:00,
2014-08-23 03:04:00,55.3,45.3,29.97,NNW,340,0.0,1.0,69,0.00,,,0.00,Wunderground v.1.13,2014-08-23 10:04:00,